CAPE
147 588 837 990 1177 1344 1206 1086 856 545 363 269 246 183 114 102 89 91 129 175 238 235 246 242 270 294 327 320 360 164 209 109
0 0 140 711 1082 1320 1348 1227 1154 908 739 717 539 392 366 379 326 299 313 351 403 423 425 435 359 468 433 335 290 263 113 0
0 0 0 38 359 1007 1433 1340 1254 1190 1106 992 804 627 688 742 728 726 660 684 713 713 704 719 544 542 483 405 276 211 123 0
0 0 0 0 35 417 1036 1309 1345 1330 1299 1098 902 948 738 912 948 939 904 857 908 930 953 951 771 702 800 563 461 425 300 0
0 0 0 0 0 0 505 1168 1413 1393 1303 1295 1279 1281 1213 1032 1024 991 960 859 983 1036 1101 1084 970 718 635 621 262 282 80 7
0 0 0 0 0 0 66 778 1190 1361 1384 1401 1347 1257 1219 914 903 852 771 752 821 908 1113 1124 910 758 665 582 262 117 0 0
0 0 0 0 0 28 188 526 944 1202 1366 1352 1335 1327 1141 958 873 947 844 714 543 621 682 799 836 775 723 540 224 1 1 1
0 0 33 0 0 16 234 548 684 880 1114 1185 1222 1288 1150 1095 1039 1020 965 783 607 518 486 551 639 677 646 369 21 0 2 3
0 0 2 32 44 60 140 261 520 705 927 1033 1051 1077 1129 1091 979 898 882 808 674 533 483 459 454 423 284 97 0 2 3 0
0 0 0 0 0 10 58 125 293 544 738 949 1036 1027 1051 1078 1012 857 816 635 593 590 561 546 497 247 84 0 1 1 3 0
0 0 0 0 0 0 21 152 215 287 508 710 827 863 860 956 899 725 651 658 570 654 653 552 367 133 0 1 1 3 0 0
0 0 0 0 0 0 0 1 33 243 405 403 469 532 725 713 530 535 521 426 475 585 513 393 176 6 1 2 2 0 0 0
0 0 0 0 0 0 0 0 0 31 87 233 274 545 626 501 277 303 486 395 540 480 365 242 35 1 1 1 1 0 0 0
0 0 0 0 0 0 0 0 0 0 21 87 213 351 480 260 213 260 474 396 416 327 344 132 4 1 1 1 1 0 0 0
0 0 0 0 0 0 0 0 0 0 0 16 34 85 149 138 126 203 271 253 183 133 94 31 0 1 1 1 0 0 0 0
0 0 0 0 0 0 0 0 0 0 0 4 28 48 30 49 55 72 104 49 40 27 19 1 1 1 1 1 0 0 0 0
0 0 0 0 0 0 0 0 0 0 0 0 9 22 50 73 93 82 23 11 21 0 2 0 0 0 0 0 0 0 0 0
0 0 0 0 0 0 0 0 0 0 0 0 0 5 44 125 156 117 140 145 12 13 0 1 0 0 0 0 0 0 0 0
0 0 0 0 0 0 0 0 0 0 0 0 0 0 0 0 7 40 37 5 1 0 0 0 0 0 0 0 0 0 0 0
CIN
-228 -254 -338 -398 -423 -388 -391 -442 -485 -546 -560 -563 -574 -605 -642 -638 -620 -589 -538 -493 -447 -418 -399 -368 -318 -271 -231 -187 -149 -205 -165 -178
-0 -1 -333 -390 -424 -402 -407 -383 -453 -489 -498 -475 -503 -536 -552 -530 -528 -511 -469 -425 -376 -343 -329 -291 -269 -201 -175 -162 -143 -121 -176 -1
-0 -0 -0 -378 -372 -410 -459 -395 -421 -477 -489 -501 -488 -496 -472 -435 -409 -398 -390 -339 -285 -249 -229 -190 -191 -150 -135 -122 -114 -102 -114 -0
-0 -0 -0 -0 -339 -389 -445 -465 -435 -486 -482 -468 -477 -416 -450 -384 -390 -385 -362 -307 -243 -197 -160 -125 -134 -117 -74 -99 -92 -60 -48 -0
-0 -0 -0 -0 -0 -63 -449 -504 -502 -507 -476 -435 -428 -417 -388 -440 -399 -368 -321 -299 -232 -179 -125 -110 -102 -122 -104 -85 -120 -91 -74 -53
-0 -0 -0 -0 -0 -0 -587 -556 -543 -519 -476 -415 -393 -383 -383 -421 -383 -361 -342 -306 -269 -194 -142 -106 -120 -100 -119 -93 -141 -135 -0 -0
-0 -0 -0 -0 -0 -658 -642 -595 -565 -515 -446 -409 -400 -366 -359 -376 -354 -300 -280 -309 -320 -252 -185 -132 -101 -86 -91 -124 -115 -100 -0 -0
-0 -0 -290 -0 -0 -540 -521 -480 -453 -520 -474 -453 -432 -378 -341 -317 -285 -260 -240 -256 -301 -311 -258 -205 -144 -98 -66 -99 -202 -52 -0 -0
-0 -0 -214 -231 -313 -365 -380 -376 -367 -462 -467 -453 -423 -383 -338 -321 -302 -278 -264 -261 -286 -279 -239 -193 -150 -106 -126 -163 -0 -0 -0 -0
-0 -0 -0 -0 -0 -212 -233 -240 -287 -379 -388 -402 -389 -375 -350 -342 -317 -320 -295 -305 -278 -229 -192 -141 -134 -155 -173 -0 -0 -0 -0 -0
-0 -0 -0 -0 -0 -0 -339 -311 -241 -264 -329 -354 -336 -354 -377 -340 -319 -312 -320 -294 -270 -221 -167 -129 -137 -176 -0 -0 -0 -0 -0 -0
-0 -0 -0 -0 -0 -0 -0 -96 -292 -279 -298 -303 -341 -345 -377 -374 -374 -361 -344 -329 -300 -242 -210 -172 -174 -244 -0 -0 -0 -0 -0 -0
-0 -0 -0 -0 -0 -0 -0 -0 -10 -289 -281 -327 -319 -366 -372 -379 -373 -370 -341 -309 -269 -255 -220 -191 -238 -0 -0 -0 -0 -0 -0 -0
-0 -0 -0 -0 -0 -0 -0 -0 -0 -0 -368 -343 -357 -364 -345 -374 -384 -359 -306 -302 -283 -265 -209 -207 -260 -0 -0 -0 -0 -0 -0 -0
-0 -0 -0 -0 -0 -0 -0 -0 -0 -0 -28 -390 -345 -343 -348 -360 -372 -336 -304 -321 -309 -293 -255 -239 -0 -0 -0 -0 -0 -0 -0 -0
-0 -0 -0 -0 -0 -0 -0 -0 -0 -0 -0 -366 -307 -354 -412 -402 -353 -335 -346 -385 -340 -320 -275 -30 -0 -0 -0 -0 -0 -0 -0 -0
-0 -0 -0 -0 -0 -0 -0 -0 -0 -0 -0 -0 -446 -405 -382 -364 -337 -343 -381 -354 -339 -323 -285 -0 -0 -0 -0 -0 -0 -0 -0 -0
-0 -0 -0 -0 -0 -0 -0 -0 -0 -0 -0 -0 -0 -322 -390 -333 -313 -316 -279 -259 -332 -314 -0 -0 -0 -0 -0 -0 -0 -0 -0 -0
-0 -0 -0 -0 -0 -0 -0 -0 -0 -0 -0 -0 -0 -0 -0 -73 -163 -340 -344 -279 -148 -0 -0 -0 -0 -0 -0 -0 -0 -0 -0 -0
Wind_Speed
18 14 12 13 13 14 13 13 13 11 10 10 12 12 11 9 9 10 10 10 11 11 14 14 13 13 13 14 13 14 16 15
14 14 12 12 13 15 16 15 15 13 12 11 10 12 9 10 10 10 11 11 12 13 14 15 15 15 16 15 16 17 17 18
9 10 11 12 15 14 13 16 16 17 14 13 12 12 14 13 13 12 11 11 13 14 15 16 17 17 18 18 18 20 21 19
14 10 9 12 15 13 13 13 15 16 14 13 16 17 18 15 13 13 12 12 14 15 16 17 18 18 20 20 21 21 22 21
34 21 6 11 18 12 13 10 10 12 13 15 15 16 17 18 18 18 16 15 16 17 18 18 19 20 20 22 21 21 22 23
29 25 19 1 8 6 10 12 12 14 15 16 19 21 25 27 24 24 21 20 18 19 19 20 21 21 21 21 20 21 21 23
26 24 20 17 18 15 14 13 16 16 18 19 20 22 27 28 28 27 25 24 22 20 20 21 22 24 22 21 20 20 20 20
25 24 23 21 18 15 13 11 12 12 13 14 15 18 22 25 26 26 26 24 22 20 19 20 22 23 23 22 21 21 21 18
26 25 25 24 21 17 15 13 13 12 12 15 17 18 20 20 21 22 21 21 22 23 23 23 23 23 21 22 23 22 19 15
29 29 28 27 25 23 22 20 19 19 18 17 16 14 14 17 17 18 18 21 23 23 24 24 24 22 22 21 21 18 17 13
33 34 33 33 31 29 26 24 22 20 19 17 16 15 17 18 18 18 21 23 22 22 23 23 23 23 21 19 18 17 14 12
35 36 37 38 35 32 29 28 24 23 20 18 18 18 18 17 17 19 20 22 22 21 21 22 21 19 18 16 16 14 14 13
41 43 44 46 45 41 37 30 26 25 25 22 19 21 20 19 19 20 20 21 21 20 21 22 20 18 16 15 15 15 15 13
43 44 46 47 46 45 40 34 29 26 26 25 24 23 24 24 23 22 22 22 21 21 20 20 21 19 18 16 17 15 13 13
45 46 47 49 47 46 43 38 29 26 25 25 26 26 27 28 29 27 26 24 24 24 22 22 22 21 20 18 17 16 14 15
44 44 45 44 43 42 40 37 32 28 27 27 26 30 34 33 31 30 28 25 24 24 23 24 24 23 22 19 18 18 18 17
38 39 40 40 39 38 37 36 33 31 31 31 30 30 28 27 27 27 26 26 25 24 25 24 24 24 23 20 19 20 19 19
36 36 36 36 35 34 34 34 32 31 29 30 30 31 32 29 27 27 26 26 25 26 26 27 28 27 25 23 21 21 20 21
33 34 33 33 33 33 32 34 34 34 33 34 34 34 34 30 27 26 25 26 28 29 30 28 30 30 26 22 20 20 20 18
Wind_Direction
218 230 243 250 234 237 246 236 224 234 258 261 276 275 275 269 263 260 261 258 260 264 279 280 283 284 285 291 285 291 295 291
224 231 241 246 251 240 237 237 233 238 234 238 237 223 265 280 277 276 269 264 267 266 275 283 283 280 283 284 289 287 285 294
274 255 241 234 226 233 249 228 234 223 227 231 261 265 276 281 290 284 273 266 273 273 275 283 286 286 286 284 285 291 291 289
257 270 252 224 215 222 220 216 213 218 229 262 277 287 288 284 278 281 274 272 275 274 279 283 285 283 285 281 278 277 287 292
296 307 269 216 200 216 216 238 238 243 249 259 250 256 269 277 285 290 290 287 282 281 281 280 279 285 287 287 287 283 285 288
323 315 322 10 294 254 268 272 272 272 265 265 272 274 282 288 289 293 293 293 286 285 281 285 286 287 288 290 293 289 292 289
337 339 346 324 308 302 294 286 284 281 278 275 273 277 282 284 288 290 293 295 295 289 290 287 289 291 287 288 289 295 295 289
340 340 340 339 338 329 316 302 288 282 276 270 267 272 281 284 286 288 292 294 296 294 289 292 292 291 289 289 290 291 296 298
334 334 334 335 335 338 332 324 314 305 294 290 286 283 284 285 288 290 291 294 296 299 298 296 296 296 295 291 290 294 300 291
332 328 327 325 325 322 317 313 308 306 302 298 291 284 282 288 288 290 292 299 303 303 301 299 299 299 297 296 295 292 293 284
331 328 327 325 323 319 314 309 301 302 302 297 291 286 291 292 294 288 295 302 307 309 307 304 301 301 300 296 298 297 293 280
330 329 326 323 323 320 315 303 295 293 292 292 290 288 292 296 293 297 299 304 309 310 312 312 308 303 300 297 297 291 284 280
323 322 319 317 315 314 311 305 293 285 286 288 285 289 292 292 293 296 299 302 307 310 313 313 311 305 301 295 295 287 282 277
321 322 321 319 317 315 316 306 301 290 285 283 288 288 290 291 291 293 296 299 302 307 309 310 310 305 301 299 293 286 280 275
321 321 322 319 316 316 316 315 309 305 294 286 288 289 288 289 289 289 290 293 297 301 303 306 307 307 300 296 292 285 282 278
324 326 325 324 324 324 323 321 313 312 306 301 295 298 297 296 291 286 287 291 294 298 301 303 304 302 300 292 283 279 279 280
328 332 332 332 333 333 333 333 327 321 312 310 310 310 309 307 302 294 290 293 296 298 298 298 300 298 294 285 281 281 278 277
327 332 335 338 340 338 338 341 341 339 334 330 325 320 317 315 312 307 299 295 296 295 298 298 297 297 293 284 280 280 279 281
329 332 334 337 338 340 338 336 336 336 334 331 329 326 324 328 325 319 313 307 301 300 300 299 299 297 292 284 279 279 284 283